Weather History for KCID - February, 2013

Change the Weather History Date:

Saturday, February 2, 2013

  Actual Average Record
Temperature  
Mean Temperature 18 °F 21 °F  
Max Temperature 24 °F 30 °F 57 °F (1987)
Min Temperature 11 °F 12 °F -26 °F (1996)
Degree Days  
Heating Degree Days 47 44  
Month to date heating degree days 107 88  
Since 1 July heating degree days 4102 4236  
Cooling Degree Days 0 0  
Month to date cooling degree days 0 0  
Year to date cooling degree days 0 0  
Moisture  
Dew Point 12 °F    
Average Humidity 85    
Maximum Humidity 96    
Minimum Humidity 73    
Precipitation  
Precipitation T in 0.04 in 1.43 in (1983)
Month to date precipitation T 0.07  
Year to date precipitation 0.94 0.99  
Sea Level Pressure  
Sea Level Pressure 30.09 in    
Wind  
Wind Speed 9 mph (West)    
Max Wind Speed 22 mph    
Max Gust Speed 26 mph    
Visibility 7 miles    
Events Snow    
T = Trace of Precipitation, MM = Missing Value Source: NWS Daily Summary

Daily Weather History Graph

Daily Weather History Graph

Search for Another Location

Airport or City:

Trip Planner

Search our weather history database for the weather conditions in past years. The results will help you decide how hot, cold, wet, or windy it might be!

Date:

Astronomy

Feb. 02, 2013 Rise Set
Actual Time 7:18 AM CST 5:23 PM CST
Civil Twilight 6:48 AM CST 5:53 PM CST
Nautical Twilight 6:15 AM CST 6:26 PM CST
Astronomical Twilight 5:42 AM CST 6:59 PM CST
Moon No Moon Rise 10:21 AM CST (2/2)
Length of Visible Light 11h 04m
Length of Day
10h 05m
Waning Gibbous, 59% of the Moon is Illuminated
Feb 2
Waning Gibbous
Feb 3
Last Quarter
Feb 10
New
Feb 17
First Quarter
Feb 25
Full

Hourly Weather History & Observations

Time (CST) Temp. Windchill Dew Point Humidity Pressure Visibility Wind Dir Wind Speed Gust Speed Precip Events Conditions
12:52 AM 19.0 °F 9.0 °F 15.1 °F 85% 30.07 in 10.0 mi South 8.1 mph - 0.00 in   Overcast
1:52 AM 21.9 °F 11.7 °F 16.0 °F 78% 30.05 in 10.0 mi SSW 9.2 mph - N/A   Overcast
2:52 AM 24.1 °F 12.0 °F 17.1 °F 75% 30.04 in 10.0 mi SW 13.8 mph - N/A   Overcast
3:52 AM 24.1 °F 13.7 °F 18.0 °F 77% 30.02 in 10.0 mi WSW 10.4 mph - N/A   Overcast
4:52 AM 24.1 °F 13.1 °F 18.0 °F 77% 30.03 in 10.0 mi West 11.5 mph - N/A   Overcast
5:52 AM 23.0 °F 9.6 °F 18.0 °F 81% 30.04 in 10.0 mi NW 16.1 mph - N/A   Overcast
6:52 AM 19.0 °F 2.7 °F 12.9 °F 77% 30.08 in 10.0 mi NNW 20.7 mph 26.5 mph N/A   Overcast
7:52 AM 17.1 °F 2.5 °F 12.0 °F 81% 30.12 in 7.0 mi NNW 15.0 mph - 0.00 in Snow Light Snow
8:16 AM 17.6 °F 3.7 °F 12.2 °F 79% 30.08 in 2.0 mi NNW 13.8 mph - 0.00 in Snow Light Snow
8:52 AM 16.0 °F 2.3 °F 12.0 °F 84% 30.14 in 3.0 mi North 12.7 mph - 0.00 in Snow Light Snow
9:52 AM 15.1 °F 0.5 °F 9.0 °F 77% 30.16 in 4.0 mi North 13.8 mph - 0.00 in Snow Light Snow
10:52 AM 15.1 °F 1.8 °F 9.0 °F 77% 30.17 in 6.0 mi North 11.5 mph - 0.00 in Snow Light Snow
11:52 AM 15.1 °F 4.2 °F 9.0 °F 77% 30.17 in 8.0 mi North 8.1 mph - 0.00 in   Overcast
12:52 PM 15.1 °F 4.2 °F 8.1 °F 74% 30.16 in 10.0 mi NNW 8.1 mph - N/A   Overcast
1:52 PM 15.8 °F 2.1 °F 8.6 °F 73% 30.12 in 10.0 mi NW 12.7 mph - N/A   Overcast
2:52 PM 15.1 °F 3.3 °F 9.0 °F 77% 30.15 in 9.0 mi WNW 9.2 mph - 0.00 in   Overcast
3:52 PM 15.1 °F 4.2 °F 10.0 °F 80% 30.16 in 6.0 mi NW 8.1 mph - 0.00 in   Haze
4:11 PM 15.8 °F 4.2 °F 8.6 °F 73% 30.11 in 10.0 mi WNW 9.2 mph - N/A   Overcast
4:52 PM 14.0 °F 3.9 °F 8.1 °F 77% 30.14 in 10.0 mi WNW 6.9 mph - N/A   Mostly Cloudy
5:52 PM 12.9 °F 6.9 °F 9.0 °F 84% 30.13 in 10.0 mi West 3.5 mph - N/A   Clear
6:52 PM 12.0 °F - 8.1 °F 84% 30.12 in 9.0 mi Calm Calm - N/A   Overcast
7:52 PM 12.9 °F - 9.0 °F 84% 30.11 in 9.0 mi Calm Calm - N/A   Overcast
8:38 PM 12.2 °F - 10.4 °F 92% 30.04 in 2.5 mi Calm Calm - 0.00 in Snow Light Snow
8:52 PM 12.9 °F 6.9 °F 10.0 °F 88% 30.09 in 3.0 mi South 3.5 mph - 0.00 in Snow Light Snow
9:04 PM 14.0 °F 8.2 °F 10.4 °F 86% 30.04 in 2.0 mi SSE 3.5 mph - 0.00 in Snow Light Snow
9:18 PM 14.0 °F 8.2 °F 10.4 °F 86% 30.03 in 3.0 mi SSE 3.5 mph - 0.00 in Snow Light Snow
9:36 PM 14.0 °F 8.2 °F 10.4 °F 86% 30.03 in 2.0 mi South 3.5 mph - 0.00 in Snow Light Snow
9:52 PM 14.0 °F 6.5 °F 12.0 °F 92% 30.07 in 3.0 mi South 4.6 mph - 0.00 in Snow Light Snow
10:08 PM 14.0 °F 3.9 °F 12.2 °F 93% 30.01 in 8.0 mi South 6.9 mph - 0.00 in   Overcast
10:52 PM 15.1 °F 6.4 °F 12.9 °F 91% 30.04 in 5.0 mi SSE 5.8 mph - 0.00 in Snow Light Snow
11:52 PM 15.1 °F 4.2 °F 12.9 °F 91% 30.01 in 8.0 mi SSE 8.1 mph - 0.00 in   Overcast